Weather Roundup
Issued by NWS Springfield, MO

Home | Current Version | Previous Version | Text Only | Print | Product List | Glossary On
Versions: 1 2 3 4 5 6 7 8 9 10 11 12 13 14 15 16 17 18 19 20 21 22 23 24 25 26 27 28 29 30 31 32 33 34 35 36 37 38 39 40 41 42 43 44 45 46 47 48 49 50
000
NZUS99 KSGF 220107
HRRSGF

HOURLY WEATHER
NATIONAL WEATHER SERVICE SPRINGFIELD MO
800 PM CDT SUN SEP 21 2014

......SGF CWA......

CITY           SKY/WX    TMP DP  RH WIND       PRES   REMARKS
SPRINGFIELD    CLEAR     65  50  58 N8        30.14R
JOPLIN         CLEAR     64  52  64 N6        30.16R
WEST PLAINS    CLEAR     64  50  60 NW3       30.13R
ROLLA          CLEAR     62  48  60 N7        30.12R
OSAGE BEACH    CLEAR     64  46  52 N3        30.14R
BRANSON        PTCLDY    64  48  55 NW3       30.14R

......SURROUNDING SGF CWA......

CITY           SKY/WX    TMP DP  RH WIND       PRES   REMARKS
CHANUTE        CLEAR     67  50  54 N5        30.17R
PARSONS        CLEAR     66  53  63 N5        30.18R
EMPORIA        CLEAR     65  49  56 N6        30.20R
GROVE OK       CLEAR     68  54  60 CALM      30.15R
ROGERS AR      PTCLDY    66  52  60 CALM      30.16R
SILOAM SPRINGS PTCLDY    66  48  52 N6        30.16R
HARRISON AR    CLEAR     65  48  54 NW3       30.14R
NEAR YELLVILLE CLEAR     70  46  43 NW5       30.11R

......KANSAS AND MISSOURI......

CITY           SKY/WX    TMP DP  RH WIND       PRES   REMARKS
KANSAS CTY INT CLEAR     63  49  60 N6        30.19R
DOWNTOWN KC    CLEAR     67  49  52 N6        30.18R
COLUMBIA       CLEAR     61  50  67 NW7       30.15R
SEDALIA        CLEAR     61  51  70 N7        30.17R
ST JOSEPH      CLEAR     60  50  69 N5        30.20R
ST LOUIS       PTCLDY    66  50  56 N6        30.11R
SPIRIT OF STL  PTCLDY    66  50  56 N8        30.10R
KIRKSVILLE     CLEAR     60  49  66 N3        30.18R
WICHITA        PTCLDY    74  40  29 N6        30.20R
TOPEKA         CLEAR     65  50  58 NW3       30.20R
OLATHE         CLEAR     67  47  48 N6        30.18R

......TENNESSEE......

CITY           SKY/WX    TMP DP  RH WIND       PRES   REMARKS
MEMPHIS        MOCLDY    81  61  50 N18G25    30.01R
NASHVILLE      PTCLDY    74  49  41 N10       30.01R

......ARKANSAS.......

CITY           SKY/WX    TMP DP  RH WIND       PRES   REMARKS
FAYETTEVILLE   PTCLDY    64  53  67 CALM      30.14R
FT SMITH       CLEAR     75  57  53 N8        30.08R
LITTLE ROCK    PTCLDY    78  69  73 NW7       30.02R

......OKLAHOMA.......

CITY           SKY/WX    TMP DP  RH WIND       PRES   REMARKS
TULSA          PTCLDY    73  51  46 N8        30.14R
PONCA CITY     PTCLDY    72  49  44 NE8       30.16R
MCALESTER      PTCLDY    75  60  59 MISG      30.11R
OKLAHOMA CITY  MOCLDY    74  56  53 NE8       30.15R

......IOWA............

CITY           SKY/WX    TMP DP  RH WIND       PRES   REMARKS
DES MOINES     PTCLDY    63  48  58 N6        30.18R
QUAD CITIES    PTCLDY    61  51  70 NW7       30.12R

......ILLINOIS........

CITY           SKY/WX    TMP DP  RH WIND       PRES   REMARKS
QUINCY         CLEAR     59  50  72 N8        30.15R
CHICAGO        PTCLDY    60  49  66 N3        30.09R




USA.gov is the U.S. government's official web portal to all federal, state and local government web resources and services.